Weather History for EGSH - May, 2013

Change the Weather History Date:

Tuesday, May 28, 2013

  Actual Average Record
Temperature  
Mean Temperature 54 °F -  
Max Temperature 62 °F 65 °F 78 °F (2012)
Min Temperature 46 °F 51 °F 37 °F (2004)
Degree Days  
Heating Degree Days 11    
Growing Degree Days 4 (Base 50)    
Moisture  
Dew Point 45 °F    
Average Humidity 69    
Maximum Humidity 82    
Minimum Humidity 52    
Precipitation  
Precipitation 0.00 in - - ()
Sea Level Pressure  
Sea Level Pressure 29.58 in    
Wind  
Wind Speed 9 mph ()    
Max Wind Speed 20 mph    
Max Gust Speed 30 mph    
Visibility 5.7 miles    
Events Rain    
Averages and records for this station are not official NWS values.
T = Trace of Precipitation, MM = Missing Value Source: Averaged Metar Reports

Daily Weather History Graph

Daily Weather History Graph

Search for Another Location

Airport or City:

Trip Planner

Search our weather history database for the weather conditions in past years. The results will help you decide how hot, cold, wet, or windy it might be!

Date:

Astronomy

May. 28, 2013 Rise Set
Actual Time 4:40 AM BST 9:04 PM BST
Civil Twilight 3:54 AM BST 9:51 PM BST
Nautical Twilight 2:43 AM BST 11:02 PM BST
Astronomical Twilight 1:24 AM BST 12:19 AM BST
Moon 11:59 PM BST (5/28) 8:22 AM BST (5/28)
Length of Visible Light 17h 57m
Length of Day
16h 23m
Waning Gibbous, 85% of the Moon is Illuminated
May 28
Waning Gibbous
May 31
Last Quarter
Jun 8
New
Jun 16
First Quarter
Jun 23
Full

Hourly Weather History & Observations

Time (BST) Temp. Windchill Dew Point Humidity Pressure Visibility Wind Dir Wind Speed Gust Speed Precip Events Conditions
12:20 AM 48.2 °F - 41.0 °F 76% 29.68 in 6.2 mi SE 8.1 mph - N/A   Unknown
12:50 AM 48.2 °F - 41.0 °F 76% 29.68 in 6.2 mi SE 8.1 mph - N/A   Unknown
1:20 AM 48.2 °F - 41.0 °F 76% 29.68 in 6.2 mi SE 6.9 mph - N/A   Unknown
1:50 AM 46.4 °F 43.5 °F 39.2 °F 76% 29.65 in 6.2 mi East 5.8 mph - N/A   Unknown
2:20 AM 48.2 °F - 41.0 °F 76% 29.65 in 6.2 mi ESE 9.2 mph - N/A   Unknown
2:50 AM 50.0 °F - 41.0 °F 71% 29.65 in 6.2 mi SE 8.1 mph - N/A   Unknown
3:20 AM 50.0 °F - 41.0 °F 71% 29.65 in 6.2 mi ESE 8.1 mph - N/A   Unknown
3:50 AM 51.8 °F - 42.8 °F 71% 29.62 in 6.2 mi SE 9.2 mph - N/A   Unknown
4:20 AM 51.8 °F - 42.8 °F 71% 29.62 in 6.2 mi ESE 9.2 mph - N/A   Unknown
4:50 AM 51.8 °F - 41.0 °F 67% 29.62 in 6.2 mi ESE 10.4 mph - N/A   Unknown
5:20 AM 51.8 °F - 41.0 °F 67% 29.62 in 6.2 mi ESE 10.4 mph - N/A   Unknown
5:50 AM 53.6 °F - 41.0 °F 62% 29.62 in - ESE 11.5 mph - N/A   Clear
6:20 AM 53.6 °F - 42.8 °F 67% 29.62 in - ESE 10.4 mph - N/A   Clear
6:50 AM 55.4 °F - 44.6 °F 67% 29.62 in - ESE 11.5 mph - N/A   Clear
7:20 AM 55.4 °F - 42.8 °F 63% 29.59 in - SE 11.5 mph - N/A   Clear
7:50 AM 57.2 °F - 42.8 °F 59% 29.59 in - ESE 15.0 mph - N/A   Clear
8:20 AM 59.0 °F - 44.6 °F 59% 29.59 in - ESE 8.1 mph - N/A   Clear
8:50 AM 57.2 °F - 44.6 °F 63% 29.59 in - ESE 9.2 mph - N/A   Clear
9:20 AM 59.0 °F - 44.6 °F 59% 29.59 in - East 11.5 mph - N/A   Clear
9:50 AM 59.0 °F - 46.4 °F 63% 29.59 in - East 10.4 mph - N/A   Clear
10:20 AM 60.8 °F - 46.4 °F 59% 29.59 in - East 11.5 mph - N/A   Clear
10:50 AM 60.8 °F - 46.4 °F 59% 29.56 in - East 11.5 mph - N/A   Clear
11:20 AM 59.0 °F - 46.4 °F 63% 29.56 in - East 11.5 mph - N/A   Clear
11:50 AM 59.0 °F - 48.2 °F 67% 29.56 in - East 11.5 mph - N/A   Clear
12:20 PM 55.4 °F - 46.4 °F 72% 29.56 in - East 11.5 mph - N/A   Clear
12:50 PM 57.2 °F - 46.4 °F 67% 29.56 in - East 13.8 mph - N/A   Clear
1:20 PM 57.2 °F - 46.4 °F 67% 29.56 in - East 13.8 mph - N/A   Clear
1:50 PM 57.2 °F - 46.4 °F 67% 29.56 in - ESE 15.0 mph - N/A   Clear
2:20 PM 57.2 °F - 44.6 °F 63% 29.56 in 4.3 mi East 15.0 mph - N/A   Unknown
2:50 PM 60.8 °F - 48.2 °F 63% 29.53 in 4.3 mi East 15.0 mph - N/A   Unknown
3:20 PM 62.6 °F - 44.6 °F 52% 29.53 in 5.0 mi East 19.6 mph - N/A   Unknown
3:50 PM 62.6 °F - 46.4 °F 55% 29.53 in 5.0 mi East 18.4 mph - N/A   Unknown
4:20 PM 60.8 °F - 44.6 °F 55% 29.53 in 5.0 mi East 18.4 mph 29.9 mph N/A   Unknown
4:50 PM 57.2 °F - 44.6 °F 63% 29.53 in 5.6 mi East 19.6 mph - N/A   Unknown
5:20 PM 57.2 °F - 44.6 °F 63% 29.53 in 5.6 mi SE 15.0 mph - N/A   Partly Cloudy
5:50 PM 55.4 °F - 44.6 °F 67% 29.53 in 5.0 mi East 16.1 mph - N/A Rain Light Rain
6:20 PM 57.2 °F - 46.4 °F 67% 29.53 in 4.3 mi East 11.5 mph - N/A   Partly Cloudy
6:50 PM 57.2 °F - 46.4 °F 67% 29.53 in 4.3 mi East 6.9 mph - N/A   Partly Cloudy
7:20 PM 57.2 °F - 48.2 °F 72% 29.53 in 4.3 mi ESE 4.6 mph - N/A   Partly Cloudy
7:50 PM 55.4 °F - 48.2 °F 77% 29.56 in 6.2 mi SE 4.6 mph - N/A   Scattered Clouds
8:20 PM 55.4 °F - 48.2 °F 77% 29.56 in 6.2 mi SSE 5.8 mph - N/A   Scattered Clouds
8:50 PM 53.6 °F - 48.2 °F 82% 29.56 in 6.2 mi SE 3.5 mph - N/A   Scattered Clouds
9:20 PM 53.6 °F - 48.2 °F 82% 29.56 in 6.2 mi SSE 4.6 mph - N/A   Scattered Clouds
9:50 PM 53.6 °F - 48.2 °F 82% 29.56 in 6.2 mi SSE 3.5 mph - N/A   Partly Cloudy
10:20 PM 51.8 °F - 46.4 °F 82% 29.56 in 6.2 mi Variable 2.3 mph - N/A   Scattered Clouds
10:50 PM 51.8 °F - 46.4 °F 82% 29.56 in 6.2 mi SSW 3.5 mph - N/A   Scattered Clouds
11:20 PM 51.8 °F - 46.4 °F 82% 29.59 in 6.2 mi Variable 3.5 mph - N/A   Scattered Clouds
11:50 PM 51.8 °F - 46.4 °F 82% 29.59 in 6.2 mi South 4.6 mph - N/A   Mostly Cloudy